GFSNE_500_rhum_036.txt.gz
RH
68 86 93 91 90 90 93 100 95 86 65 34 9 9 11 13 12 14 16 20 26 27 28 26 25 23 21 18 17 16 15 13 12 10 5 3 2 5
70 69 71 87 76 98 100 98 72 43 27 16 9 11 12 13 15 23 30 29 26 23 23 23 21 19 19 17 16 14 12 12 12 13 12 6 3 2
100 100 100 84 100 100 93 54 37 22 13 10 13 14 18 21 31 26 23 24 25 24 24 23 21 19 18 17 17 17 16 15 13 12 12 12 8 4
100 100 100 100 100 99 58 30 20 14 13 16 16 24 38 36 25 29 28 25 24 27 27 24 22 21 20 19 18 18 17 14 13 14 13 11 10 9
100 100 100 100 92 54 28 18 13 13 20 21 20 40 41 31 30 28 23 22 25 24 24 24 27 30 37 39 36 36 32 28 17 13 12 13 11 10
100 99 100 91 52 22 16 13 16 23 25 26 35 46 38 34 29 23 23 24 26 28 30 42 51 52 52 46 40 40 39 36 31 23 16 13 12 11
100 100 79 42 17 13 13 18 26 27 30 31 56 48 42 32 25 21 20 23 36 39 50 68 49 44 44 42 37 35 35 34 30 20 15 15 13 10
97 60 24 14 15 17 20 28 33 33 40 57 56 48 40 28 22 21 22 25 53 54 60 57 40 39 20 18 17 17 20 24 27 26 19 13 13 14
36 14 13 18 22 27 32 40 38 41 56 54 55 49 38 27 22 23 24 30 51 57 51 56 32 18 23 25 25 22 17 14 15 17 17 15 13 14
12 14 24 27 29 32 43 44 52 71 71 67 62 52 36 26 22 24 28 41 62 61 42 51 20 23 38 38 35 39 35 23 20 19 16 15 15 14
17 25 30 31 33 41 48 54 83 82 84 78 69 54 36 26 21 25 29 38 74 68 47 45 20 32 55 45 49 56 56 45 50 49 52 23 15 14
23 32 34 37 39 50 56 83 88 93 94 91 79 60 40 27 22 22 31 44 73 81 54 54 22 27 69 57 67 73 58 56 91 86 80 57 31 24
33 37 38 42 51 58 79 90 96 100 100 96 90 72 48 32 23 22 30 38 82 85 62 61 31 26 57 77 79 84 63 83 98 85 71 80 80 77
44 43 43 47 60 71 92 100 100 100 100 94 93 84 63 44 27 21 26 35 67 92 73 75 60 30 38 70 92 87 82 99 100 100 100 100 98 75
52 51 49 54 69 79 86 91 99 99 97 100 99 95 77 57 38 23 21 31 49 85 83 79 82 38 31 53 95 88 100 100 100 100 100 100 63 46
58 57 55 58 76 86 88 90 95 96 100 100 100 99 84 68 49 27 20 26 36 80 86 79 85 52 35 45 96 90 97 100 100 100 94 63 53 49
56 61 57 61 82 90 92 91 92 98 100 100 100 99 93 78 61 35 21 21 27 85 93 71 86 68 36 39 93 90 100 100 100 100 77 63 52 98
55 62 59 75 86 97 100 94 91 97 100 100 100 99 96 90 74 44 26 20 24 58 100 76 91 89 48 34 69 97 94 100 96 88 73 100 100 100
55 62 61 82 100 100 99 94 100 98 99 97 98 99 98 94 82 57 37 22 22 37 98 90 90 100 66 30 40 88 91 93 90 77 73 100 100 100
53 59 60 78 100 100 98 97 100 100 100 99 97 97 100 97 84 68 44 32 21 23 80 100 85 100 96 63 40 46 84 86 82 80 81 100 100 92
55 60 62 77 100 100 100 99 100 100 99 97 97 99 93 95 89 77 53 39 26 22 37 99 98 88 100 100 67 33 48 69 77 72 76 94 98 99
59 65 63 83 100 100 100 100 100 98 97 93 96 99 93 89 93 86 62 47 36 23 24 72 100 99 94 100 100 84 35 38 55 53 48 47 71 83
65 71 66 84 100 100 100 100 100 100 100 98 96 100 100 88 91 94 76 56 44 34 23 25 89 100 100 86 100 100 94 41 28 36 39 40 42 42

GFSNE_500_rhum_042.txt.gz
RH
65 70 78 84 84 62 38 14 12 7 18 77 100 100 100 99 84 69 46 25 18 15 15 15 16 14 11 12 17 15 15 15 18 19 18 16 11 7
82 82 88 77 35 17 6 6 13 55 86 93 74 55 47 42 33 23 19 17 19 21 22 19 19 22 21 19 17 18 18 18 16 15 16 19 18 12
77 87 94 33 5 5 6 8 31 36 20 17 17 17 17 17 19 19 21 25 27 25 23 24 28 27 22 21 20 17 15 15 15 17 17 15 15 17
99 96 20 4 5 6 8 15 20 21 15 13 14 17 25 26 25 30 34 33 32 37 37 35 33 29 24 20 16 14 14 16 18 20 20 17 16 14
89 7 5 6 7 9 15 15 19 19 14 15 19 28 29 32 36 40 47 48 50 45 37 34 29 24 19 16 15 16 18 19 20 21 22 20 18 18
7 5 6 8 11 14 19 27 30 20 18 22 30 29 32 39 42 46 67 65 59 48 37 32 24 19 17 18 21 29 37 41 40 37 26 20 19 18
6 7 9 13 19 27 28 35 34 19 22 31 35 34 43 46 61 72 68 66 58 44 33 26 20 20 18 21 31 46 43 32 32 34 34 36 27 19
9 10 14 22 35 34 37 38 30 20 28 36 39 41 51 64 79 78 69 64 55 38 26 24 19 22 20 29 43 46 33 32 30 26 26 29 35 33
12 18 27 45 49 43 43 41 25 24 34 42 44 53 70 82 81 77 74 70 56 38 27 28 22 27 29 37 50 41 35 27 19 18 19 18 18 22
20 33 56 64 54 49 47 39 22 29 36 46 48 64 81 89 81 81 75 76 59 41 29 24 22 32 44 51 53 41 36 21 19 19 20 20 19 18
32 52 76 72 59 57 48 32 22 32 45 50 56 72 89 90 85 84 79 76 64 48 32 22 24 32 51 62 51 38 33 20 19 20 31 33 30 24
51 84 94 79 69 57 40 24 26 37 54 54 66 77 86 90 87 86 78 77 66 52 35 22 21 22 62 73 60 46 29 20 21 29 47 48 38 23
80 100 100 81 60 44 27 24 30 47 58 58 75 86 90 89 89 90 83 79 71 55 36 25 21 24 38 80 73 52 25 23 31 55 49 40 43 31
96 96 70 56 48 26 23 30 39 57 61 63 84 93 94 92 92 92 86 84 74 57 38 24 20 24 66 78 68 44 26 34 68 59 74 83 91 92
71 56 53 39 24 22 26 36 45 64 64 74 93 97 97 93 91 90 89 87 82 59 40 25 20 27 76 72 77 30 33 72 66 86 100 99 100 100
52 46 34 21 21 22 26 42 54 69 67 83 99 100 99 91 90 88 93 91 90 75 43 29 20 34 87 73 61 29 68 64 87 99 100 100 100 100
40 32 21 20 20 20 26 42 58 71 70 87 100 100 98 92 94 92 93 92 86 75 46 30 19 56 92 88 58 34 71 74 99 93 100 100 100 100
19 19 19 18 14 17 25 41 62 74 73 90 100 100 97 92 96 96 95 91 84 78 48 30 21 53 95 92 62 41 77 78 100 87 100 100 100 100
18 19 18 14 14 17 24 40 67 78 74 99 100 100 100 96 97 98 98 88 84 80 51 33 22 51 97 92 77 39 80 78 100 95 92 100 100 100
19 18 15 14 18 34 43 47 68 82 82 100 100 100 100 99 97 97 98 89 86 84 57 40 24 32 99 96 97 42 80 85 95 100 93 90 97 100
22 16 14 15 32 66 49 39 66 85 92 100 100 100 100 100 99 98 95 91 87 88 67 45 32 25 83 100 100 87 47 85 89 96 99 94 96 100
19 16 15 16 50 75 33 32 63 91 100 100 100 100 100 100 100 98 94 94 88 90 77 55 41 27 38 100 99 100 75 57 84 83 88 87 92 100
19 17 17 19 37 55 36 39 81 99 100 100 100 100 100 100 98 99 94 96 93 90 87 66 47 39 26 57 100 100 100 90 51 78 79 77 89 90

GFSNE_500_rhum_045.txt.gz
RH
81 83 83 75 71 86 100 100 41 11 5 6 7 7 10 13 14 14 13 13 14 15 16 16 15 16 15 14 14 15 15 13 11 10 13 16 14 9
83 86 78 69 94 100 100 40 5 5 7 9 11 15 19 19 14 17 20 21 24 26 27 28 27 27 25 22 20 18 18 18 18 17 16 16 15 15
88 84 84 92 70 21 8 5 6 9 11 14 18 25 27 17 17 23 27 27 28 32 32 29 28 30 32 30 30 29 26 23 20 20 18 17 16 15
100 83 100 100 39 5 6 8 10 12 16 21 32 33 28 18 22 30 31 35 37 37 33 36 44 47 44 39 34 30 26 23 19 16 14 13 12 13
98 100 81 18 5 6 8 10 12 20 32 34 40 40 24 20 32 36 41 43 52 51 46 53 51 47 39 33 26 22 19 16 14 13 14 15 15 15
100 98 18 6 7 8 11 14 23 44 51 43 47 42 22 26 39 41 47 64 70 70 64 62 50 40 30 25 21 19 17 16 17 21 26 30 28 20
100 45 7 7 9 11 16 27 44 71 61 55 51 35 22 36 43 47 56 74 88 74 71 67 49 34 25 22 20 19 18 19 24 32 36 33 30 32
67 7 8 9 11 18 28 40 77 90 74 68 51 26 25 43 48 55 70 84 84 80 68 70 48 33 23 21 20 19 20 25 34 39 33 28 28 31
8 8 9 12 18 31 42 66 93 98 81 57 40 24 30 49 53 66 81 86 84 78 66 71 49 34 24 21 20 22 25 30 42 39 32 29 25 21
8 9 11 15 27 38 62 92 100 84 58 49 27 26 41 53 59 68 81 82 88 86 66 68 48 34 24 21 21 22 27 49 50 38 34 26 21 20
9 11 14 20 34 51 78 92 70 54 47 29 23 35 50 57 66 73 83 82 84 88 72 71 47 33 22 21 20 22 30 54 46 39 29 22 21 21
11 14 21 35 49 70 82 65 54 42 28 21 27 42 58 61 75 81 85 82 76 80 76 70 47 32 22 21 21 22 35 49 45 29 21 19 19 20
12 19 36 43 45 56 57 50 43 29 22 22 34 53 63 64 81 91 90 78 74 79 76 65 48 34 24 22 27 38 56 51 30 22 28 40 41 36
19 33 44 43 44 43 44 38 28 23 21 23 44 64 67 67 92 97 95 84 81 78 80 67 52 34 23 20 48 72 63 42 27 46 47 57 68 72
22 34 45 40 41 36 27 23 23 20 19 25 55 71 69 78 100 98 97 91 90 79 75 67 51 33 21 23 77 69 65 28 53 54 83 92 90 96
27 27 28 27 26 23 20 22 20 18 16 27 62 74 73 86 100 99 99 95 92 85 73 61 50 33 21 37 79 77 35 59 58 86 89 97 100 100
17 20 22 23 23 20 19 19 18 14 16 28 63 76 80 95 100 99 98 96 91 90 85 74 53 34 22 61 82 81 44 62 75 83 91 100 100 100
18 20 20 22 22 22 21 20 17 15 20 31 65 82 88 100 100 100 98 95 92 90 82 78 57 35 23 76 91 76 61 67 80 71 98 100 100 100
20 22 23 23 24 23 21 21 16 20 45 54 74 85 95 100 100 100 99 94 92 91 80 82 59 38 24 81 98 89 64 72 79 81 94 100 100 100
20 30 32 29 26 21 18 18 18 36 68 62 82 89 100 100 100 100 99 99 96 91 80 80 65 44 24 66 98 100 48 81 76 86 85 94 100 100
26 22 25 29 23 20 18 17 19 69 62 39 80 94 100 100 100 100 100 100 99 93 83 82 73 49 30 34 97 100 71 76 82 80 87 71 87 100
20 15 20 25 22 21 18 20 24 90 71 38 90 100 100 100 100 100 100 100 100 96 87 86 79 58 42 26 70 100 100 50 85 87 82 82 76 89
14 15 18 22 22 21 21 24 32 80 51 48 100 100 100 100 100 100 100 100 100 100 93 89 86 71 51 35 28 90 100 100 57 78 81 82 79 86

GFSNE_500_rhum_048.txt.gz
RH
97 99 97 78 86 92 88 88 95 97 62 12 7 7 8 9 9 12 21 29 29 14 16 20 22 23 24 25 25 24 20 15 12 11 13 25 32 36
100 100 95 84 100 100 100 100 100 90 51 9 8 8 10 13 16 26 35 42 23 17 24 24 27 31 32 32 29 27 26 24 22 18 14 12 10 11
100 88 79 100 100 100 100 100 100 67 15 8 8 11 13 21 33 46 49 43 18 21 28 30 33 37 42 44 42 39 36 31 27 23 19 18 16 14
69 96 100 100 100 100 100 100 96 20 9 8 11 17 26 38 59 61 56 30 19 30 32 34 44 45 45 47 47 46 42 39 36 32 27 24 21 18
86 100 100 100 100 100 100 98 19 9 9 11 16 28 40 70 72 60 48 22 24 35 36 42 53 46 52 54 47 37 33 32 28 25 24 22 20 19
99 100 100 100 100 100 68 14 9 9 12 22 27 40 68 87 68 57 34 21 36 41 41 49 54 54 53 55 41 28 25 23 21 19 18 16 15 13
100 100 100 100 79 37 15 10 10 13 22 33 42 67 86 71 60 41 23 25 46 49 52 68 55 58 54 52 39 25 23 22 21 19 18 17 19 20
100 100 88 65 30 16 11 10 14 26 33 46 68 83 62 53 42 26 23 38 52 60 56 69 65 61 59 53 40 27 22 22 21 19 18 19 21 26
96 81 48 19 11 10 11 14 20 32 41 50 71 68 56 46 29 22 29 48 58 62 63 71 68 63 62 53 38 30 22 20 19 18 17 17 22 30
59 33 18 12 12 12 15 19 30 40 41 47 54 52 48 34 24 23 38 58 65 71 70 68 71 68 65 49 35 29 22 20 20 21 22 23 28 31
32 23 14 12 13 15 21 27 35 49 51 46 44 43 35 28 22 26 51 62 70 80 76 72 71 70 67 48 34 27 22 20 22 28 37 39 36 33
26 18 13 12 19 22 24 27 34 58 53 44 39 32 26 24 23 35 63 67 75 87 77 76 75 67 64 49 32 26 21 20 26 50 50 42 34 27
28 16 10 13 17 23 23 28 31 32 33 32 28 24 24 21 25 51 73 72 84 88 81 76 77 73 59 42 28 23 20 23 50 56 41 26 24 24
16 8 9 11 14 16 20 23 27 26 28 27 24 23 22 19 33 67 73 80 86 87 82 81 81 73 58 42 26 19 25 60 64 34 32 38 37 39
10 9 10 12 16 20 21 24 26 25 25 24 21 21 19 22 45 78 78 86 91 86 80 84 81 73 59 38 21 25 78 69 36 44 43 54 70 82
8 9 11 13 16 19 20 23 24 25 25 24 22 20 19 29 61 84 83 92 91 87 86 86 81 71 57 35 21 71 84 50 50 52 60 80 87 100
6 8 10 8 8 9 17 25 29 25 25 27 23 22 23 42 78 88 96 97 91 92 93 88 80 69 54 33 25 90 86 49 60 59 78 100 100 92
10 10 6 5 6 11 23 33 31 26 24 24 32 27 46 60 91 96 100 100 95 96 95 91 83 72 53 32 36 90 79 64 63 66 93 100 94 100
12 10 5 5 10 22 27 29 31 26 22 25 38 30 81 86 98 100 100 100 97 98 97 94 84 76 56 35 39 96 88 69 70 69 86 96 99 100
14 10 6 10 23 24 20 24 26 22 21 26 24 49 84 82 100 100 100 100 99 100 98 95 85 79 62 41 30 96 96 56 74 72 82 79 100 99
11 8 8 16 23 17 20 25 24 22 29 23 25 71 68 72 100 100 100 100 100 100 96 94 88 81 68 46 28 85 98 71 77 71 77 75 85 96
8 8 9 17 17 17 20 23 24 25 35 33 34 65 72 78 100 100 100 100 100 100 96 97 94 84 76 53 36 42 100 97 55 79 70 70 73 87
9 9 10 14 15 17 19 21 24 32 36 45 51 81 63 95 100 100 100 100 100 100 98 100 99 88 85 65 50 28 73 100 95 57 79 67 62 67